Location: Sternwarte ZA, Rosenfeld-Brittheim
(48.2889°N, 8.6789°E)
Time: 08:26:24
(UTC+01:00)

ISS - Pass Details

Date: 11 November 2018
Orbit: 401 x 408 km, 51.6° (Epoch: 20 November)

Event Time Altitude Azimuth Distance (km) Brightness Sun altitude
Exits shadow 06:41:19 10° 274° (W) 1,474 -1.6 -7.8°
Reaches altitude 10° 06:41:20 10° 274° (W) 1,463 -1.6 -7.8°
Maximum altitude 06:44:03 24° 218° (SW) 886 -2.3 -7.3°
Drops below altitude 10° 06:46:46 10° 162° (SSE) 1,459 -0.5 -6.9°
Sets 06:49:04 0° 148° (SSE) 2,317 0.9 -6.5°
